| time (UTC) | temp F | wind direction | speed MPH | gust MPH | rain 1hr in | rain 24hr in | rain mn in | humidity % | barometer mb |
| 20260507134601 | 47 | 188 | 0.0 | 0.0 | 0.00 | 0.00 | 0.00 | 40 | 1011.3 |
| 20260507133058 | 43 | 188 | 0.0 | 0.0 | 0.00 | 0.00 | 0.00 | 41 | 1011.2 |
| 20260507131612 | 39 | 188 | 0.0 | 0.0 | 0.00 | 0.00 | 0.00 | 49 | 1011.2 |
| 20260507130055 | 36 | 188 | 0.0 | 0.0 | 0.00 | 0.00 | 0.00 | 52 | 1010.9 |
| 20260507124555 | 35 | 188 | 0.0 | 0.0 | 0.00 | 0.00 | 0.00 | 53 | 1010.7 |
| 20260507123051 | 35 | 188 | 0.0 | 0.0 | 0.00 | 0.00 | 0.00 | 54 | 1010.8 |
| 20260507121520 | 34 | 188 | 0.0 | 0.0 | 0.00 | 0.00 | 0.00 | 55 | 1010.6 |
| 20260507120018 | 35 | 189 | 0.0 | 0.0 | 0.00 | 0.00 | 0.00 | 52 | 1010.6 |
| 20260507114525 | 35 | 189 | 0.0 | 3.0 | 0.00 | 0.00 | 0.00 | 51 | 1010.6 |
| 20260507113014 | 35 | 188 | 0.0 | 3.0 | 0.00 | 0.00 | 0.00 | 52 | 1010.3 |
| 20260507111521 | 34 | 192 | 0.0 | 0.0 | 0.00 | 0.00 | 0.00 | 53 | 1010.3 |
| 20260507110014 | 34 | 199 | 0.0 | 1.0 | 0.00 | 0.00 | 0.00 | 53 | 1010.1 |
| 20260507104512 | 34 | 200 | 0.0 | 0.0 | 0.00 | 0.00 | 0.00 | 52 | 1009.9 |
| 20260507103011 | 34 | 200 | 0.0 | 0.0 | 0.00 | 0.00 | 0.00 | 52 | 1009.8 |
| 20260507101609 | 35 | 173 | 0.0 | 0.0 | 0.00 | 0.00 | 0.00 | 50 | 1009.7 |
| 20260507100007 | 36 | 172 | 0.0 | 2.0 | 0.00 | 0.00 | 0.00 | 48 | 1009.8 |
| 20260507094506 | 36 | 172 | 0.0 | 0.0 | 0.00 | 0.00 | 0.00 | 48 | 1009.9 |
| 20260507093005 | 36 | 172 | 0.0 | 4.0 | 0.00 | 0.00 | 0.00 | 47 | 1009.8 |
| 20260507091504 | 36 | 172 | 0.0 | 0.0 | 0.00 | 0.00 | 0.00 | 48 | 1009.7 |
| 20260507090005 | 36 | 172 | 0.0 | 3.0 | 0.00 | 0.00 | 0.00 | 49 | 1009.7 |
| 20260507084501 | 35 | 172 | 0.0 | 1.0 | 0.00 | 0.00 | 0.00 | 49 | 1009.7 |
| 20260507083058 | 36 | 172 | 0.0 | 3.0 | 0.00 | 0.00 | 0.00 | 48 | 1009.6 |
| 20260507081556 | 39 | 171 | 0.0 | 6.0 | 0.00 | 0.00 | 0.00 | 44 | 1009.7 |
| 20260507080053 | 36 | 175 | 0.0 | 0.0 | 0.00 | 0.00 | 0.00 | 48 | 1009.9 |
| 20260507074552 | 36 | 177 | 0.0 | 0.0 | 0.00 | 0.00 | 0.00 | 47 | 1010.1 |
| 20260507073049 | 37 | 177 | 0.0 | 3.0 | 0.00 | 0.00 | 0.00 | 48 | 1010.2 |
| 20260507071547 | 39 | 176 | 0.0 | 0.0 | 0.00 | 0.00 | 0.00 | 42 | 1010.1 |
| 20260507070057 | 39 | 172 | 0.0 | 0.0 | 0.00 | 0.00 | 0.00 | 41 | 1010.2 |
| 20260507064542 | 41 | 172 | 0.0 | 0.0 | 0.00 | 0.00 | 0.00 | 38 | 1010.2 |
| 20260507063038 | 41 | 172 | 0.0 | 0.0 | 0.00 | 0.00 | 0.00 | 39 | 1010.3 |
| 20260507061536 | 42 | 175 | 0.0 | 0.0 | 0.00 | 0.00 | 0.00 | 37 | 1010.5 |
| 20260507060034 | 43 | 184 | 0.0 | 0.0 | 0.00 | 0.00 | 0.00 | 35 | 1010.6 |
| 20260507054532 | 43 | 210 | 0.0 | 2.0 | 0.00 | 0.00 | 0.00 | 35 | 1010.6 |
| 20260507053032 | 43 | 204 | 0.0 | 9.0 | 0.00 | 0.00 | 0.00 | 37 | 1010.6 |
| 20260507051538 | 41 | 188 | 0.0 | 10.0 | 0.00 | 0.00 | 0.00 | 42 | 1010.7 |
| 20260507050037 | 40 | 198 | 7.0 | 9.0 | 0.00 | 0.00 | 0.00 | 45 | 1010.8 |
| 20260507044528 | 42 | 196 | 0.0 | 8.0 | 0.00 | 0.00 | 0.00 | 42 | 1010.9 |
| 20260507043026 | 46 | 175 | 0.0 | 7.0 | 0.00 | 0.00 | 0.00 | 36 | 1011.2 |
| 20260507041524 | 46 | 158 | 0.0 | 6.0 | 0.00 | 0.00 | 0.00 | 35 | 1011.2 |
| 20260507040023 | 47 | 167 | 0.0 | 8.0 | 0.00 | 0.00 | 0.00 | 34 | 1011.4 |
| 20260507034535 | 47 | 167 | 0.0 | 7.0 | 0.00 | 0.00 | 0.00 | 34 | 1011.6 |
| 20260507033020 | 47 | 167 | 9.0 | 12.0 | 0.00 | 0.00 | 0.00 | 34 | 1011.8 |
| 20260507031518 | 47 | 163 | 4.0 | 8.0 | 0.00 | 0.00 | 0.00 | 34 | 1012.0 |
| 20260507030019 | 48 | 136 | 0.0 | 0.0 | 0.00 | 0.00 | 0.00 | 33 | 1012.2 |
| 20260507024529 | 48 | 147 | 0.0 | 0.0 | 0.00 | 0.00 | 0.00 | 32 | 1012.3 |
| 20260507023014 | 48 | 143 | 0.0 | 0.0 | 0.00 | 0.00 | 0.00 | 32 | 1012.4 |
| 20260507021513 | 49 | 155 | 0.0 | 0.0 | 0.00 | 0.00 | 0.00 | 32 | 1012.5 |
| 20260507020012 | 50 | 156 | 0.0 | 0.0 | 0.00 | 0.00 | 0.00 | 31 | 1012.6 |
| 20260507014519 | 50 | 168 | 0.0 | 3.0 | 0.00 | 0.00 | 0.00 | 30 | 1012.6 |
| 20260507013010 | 51 | 170 | 0.0 | 0.0 | 0.00 | 0.00 | 0.00 | 30 | 1012.6 |
| 20260507011521 | 52 | 184 | 0.0 | 1.0 | 0.00 | 0.00 | 0.00 | 28 | 1012.6 |
| 20260507010016 | 52 | 136 | 0.0 | 0.0 | 0.00 | 0.00 | 0.00 | 28 | 1012.7 |
| 20260507004509 | 53 | 207 | 0.0 | 9.0 | 0.00 | 0.00 | 0.00 | 28 | 1012.6 |
| 20260507003014 | 53 | 180 | 6.0 | 10.0 | 0.00 | 0.00 | 0.00 | 28 | 1012.8 |
| 20260507001506 | 53 | 179 | 4.0 | 9.0 | 0.00 | 0.00 | 0.00 | 28 | 1012.9 |
| 20260507000004 | 54 | 157 | 0.0 | 9.0 | 0.00 | 0.00 | 0.00 | 27 | 1013.2 |
| 20260506234502 | 53 | 100 | 0.0 | 0.0 | 0.00 | 0.00 | 0.00 | 27 | 1013.5 |
| 20260506233001 | 54 | 324 | 0.0 | 2.0 | 0.00 | 0.00 | 0.00 | 26 | 1013.5 |
| 20260506231602 | 54 | 23 | 0.0 | 13.0 | 0.00 | 0.00 | 0.00 | 27 | 1013.8 |
| 20260506230058 | 53 | 229 | 0.0 | 11.0 | 0.00 | 0.00 | 0.00 | 27 | 1014.0 |
| 20260506224558 | 54 | 115 | 0.0 | 3.0 | 0.00 | 0.00 | 0.00 | 27 | 1014.1 |
| 20260506223101 | 53 | 79 | 0.0 | 2.0 | 0.00 | 0.00 | 0.00 | 26 | 1014.1 |
| 20260506221555 | 55 | 236 | 0.0 | 1.0 | 0.00 | 0.00 | 0.00 | 26 | 1014.3 |
| 20260506220053 | 53 | 22 | 0.0 | 10.0 | 0.00 | 0.00 | 0.00 | 26 | 1014.7 |
| 20260506214551 | 55 | 34 | 1.0 | 9.0 | 0.00 | 0.00 | 0.00 | 25 | 1014.9 |
| 20260506213047 | 54 | 152 | 0.0 | 7.0 | 0.00 | 0.00 | 0.00 | 27 | 1015.3 |
| 20260506211552 | 52 | 18 | 0.0 | 14.0 | 0.00 | 0.00 | 0.00 | 28 | 1015.6 |
| 20260506210044 | 52 | 67 | 4.0 | 12.0 | 0.00 | 0.00 | 0.00 | 27 | 1015.9 |
| 20260506204542 | 54 | 297 | 1.0 | 8.0 | 0.00 | 0.00 | 0.00 | 26 | 1016.0 |
| 20260506203039 | 53 | 360 | 3.0 | 14.0 | 0.00 | 0.00 | 0.00 | 28 | 1016.2 |
| 20260506201536 | 52 | 247 | 0.0 | 5.0 | 0.00 | 0.00 | 0.00 | 31 | 1016.4 |
| 20260506200034 | 51 | 19 | 0.0 | 2.0 | 0.00 | 0.00 | 0.00 | 29 | 1016.8 |
| 20260506194536 | 52 | 355 | 0.0 | 11.0 | 0.00 | 0.00 | 0.00 | 30 | 1017.0 |
| 20260506193032 | 50 | 121 | 0.0 | 9.0 | 0.00 | 0.00 | 0.00 | 30 | 1017.2 |
| 20260506191526 | 49 | 112 | 0.0 | 13.0 | 0.00 | 0.00 | 0.00 | 31 | 1017.3 |
| 20260506190025 | 50 | 14 | 1.0 | 14.0 | 0.00 | 0.00 | 0.00 | 30 | 1017.4 |
| 20260506184526 | 50 | 22 | 0.0 | 9.0 | 0.00 | 0.00 | 0.00 | 31 | 1017.6 |
| 20260506183020 | 49 | 28 | 2.0 | 15.0 | 0.00 | 0.00 | 0.00 | 30 | 1018.0 |
| 20260506181517 | 49 | 11 | 0.0 | 13.0 | 0.00 | 0.00 | 0.00 | 32 | 1018.1 |
| 20260506180015 | 48 | 44 | 5.0 | 13.0 | 0.00 | 0.00 | 0.00 | 31 | 1018.5 |
| 20260506174514 | 48 | 29 | 11.0 | 18.0 | 0.00 | 0.00 | 0.00 | 31 | 1018.6 |
| 20260506173011 | 47 | 11 | 3.0 | 17.0 | 0.00 | 0.00 | 0.00 | 33 | 1018.8 |
| 20260506171509 | 46 | 30 | 5.0 | 17.0 | 0.00 | 0.00 | 0.00 | 34 | 1019.0 |
| 20260506170010 | 46 | 5 | 6.0 | 17.0 | 0.00 | 0.00 | 0.00 | 33 | 1019.3 |
| 20260506164507 | 47 | 27 | 4.0 | 16.0 | 0.00 | 0.00 | 0.00 | 32 | 1019.4 |
| 20260506163008 | 46 | 360 | 13.0 | 19.0 | 0.00 | 0.00 | 0.00 | 32 | 1019.4 |
| 20260506161507 | 45 | 343 | 6.0 | 16.0 | 0.00 | 0.00 | 0.00 | 34 | 1019.6 |
| 20260506160006 | 45 | 42 | 0.0 | 14.0 | 0.00 | 0.00 | 0.00 | 34 | 1019.8 |
| 20260506154503 | 45 | 324 | 0.0 | 13.0 | 0.00 | 0.00 | 0.00 | 33 | 1020.0 |
| 20260506153002 | 44 | 5 | 5.0 | 17.0 | 0.00 | 0.00 | 0.00 | 33 | 1020.1 |
| 20260506151502 | 45 | 313 | 3.0 | 17.0 | 0.00 | 0.00 | 0.00 | 33 | 1020.2 |
| 20260506150104 | 45 | 344 | 2.0 | 17.0 | 0.00 | 0.00 | 0.00 | 33 | 1020.3 |
| 20260506144611 | 44 | 316 | 9.0 | 18.0 | 0.00 | 0.01 | 0.00 | 34 | 1020.5 |
| 20260506143056 | 43 | 329 | 8.0 | 18.0 | 0.00 | 0.01 | 0.00 | 35 | 1020.5 |
| 20260506141553 | 43 | 334 | 4.0 | 15.0 | 0.00 | 0.01 | 0.00 | 37 | 1020.4 |
| 20260506140105 | 42 | 344 | 6.0 | 15.0 | 0.00 | 0.01 | 0.00 | 38 | 1020.6 |